Location: Dompnac
(44.5644°N, 4.1026°E)
Time: 19:50:47
(UTC+00:00)

Cosmos 1867 - Visible Passes

Search period start: 26 January 2021 00:00
Search period end: 05 February 2021 00:00
Orbit: 775 x 800 km, 65.0° (Epoch: 26 January)

Date Brightness Start Highest point End Pass type
(mag) Time Alt. Az. Time Alt. Az. Time Alt. Az.
26 Jan 5.8 04:22:42 13° N 04:22:42 13° N 04:23:47 10° N visible
27 Jan 6.1 03:51:56 11° NNE 03:51:56 11° NNE 03:52:18 10° NNE visible
29 Jan 6.0 04:30:59 10° N 04:30:59 10° N 04:31:10 10° N visible
01 Feb 5.9 06:23:53 10° N 06:26:01 12° NNE 06:28:08 10° NE visible
02 Feb 6.0 05:52:48 10° N 05:53:55 11° NNE 05:55:03 10° NNE visible
